DW8847 Weather Reports


Display with metric or nautical units.
time (UTC)temp
F
wind
direction
speed
MPH
gust
MPH
rain 1hr
in
rain 24hr
in
rain mn
in
humidity
%
barometer
mb
20260503203049 56 172 0.0 2.0 0.00 0.00 0.00 73 1016.3
20260503202550 57 172 0.0 0.0 0.00 0.00 0.00 71 1016.4
20260503202049 57 172 0.0 0.0 0.00 0.00 0.00 70 1016.4
20260503201551 57 172 0.0 0.0 0.00 0.00 0.00 68 1016.4
20260503201050 58 172 0.0 0.0 0.00 0.00 0.00 68 1016.4
20260503200547 58 172 0.0 0.0 0.00 0.00 0.00 67 1016.4
20260503200047 58 172 0.0 0.0 0.00 0.00 0.00 64 1016.4
20260503195546 59 172 0.0 0.0 0.00 0.00 0.00 63 1016.3
20260503195047 59 172 0.0 0.0 0.00 0.00 0.00 63 1016.3
20260503194558 59 172 0.0 0.0 0.00 0.00 0.00 63 1016.3
20260503194051 59 172 0.0 0.0 0.00 0.00 0.00 62 1016.3
20260503193549 60 172 0.0 0.0 0.00 0.00 0.00 62 1016.2
20260503193047 60 172 0.0 0.0 0.00 0.00 0.00 62 1016.2
20260503192546 60 172 0.0 0.0 0.00 0.00 0.00 60 1016.1
20260503192046 60 172 0.0 0.0 0.00 0.00 0.00 61 1016.1
20260503191551 61 172 0.0 1.0 0.00 0.00 0.00 60 1016.2
20260503191049 61 172 0.0 1.0 0.00 0.00 0.00 59 1016.2
20260503190546 62 173 0.0 0.0 0.00 0.00 0.00 60 1016.2
20260503190047 62 173 0.0 0.0 0.00 0.00 0.00 55 1016.2
20260503185545 63 173 0.0 0.0 0.00 0.00 0.00 55 1016.2
20260503185045 63 173 0.0 0.0 0.00 0.00 0.00 60 1016.1
20260503184545 64 173 0.0 0.0 0.00 0.00 0.00 58 1016.1
20260503184045 64 173 0.0 0.0 0.00 0.00 0.00 53 1016.0
20260503183544 64 173 0.0 0.0 0.00 0.00 0.00 52 1015.9
20260503183053 65 173 0.0 2.0 0.00 0.00 0.00 49 1015.8
20260503182544 65 173 0.0 2.0 0.00 0.00 0.00 48 1015.7
20260503182045 66 173 0.0 0.0 0.00 0.00 0.00 47 1015.7
20260503181558 66 173 0.0 0.0 0.00 0.00 0.00 48 1015.7
20260503181046 67 173 0.0 0.0 0.00 0.00 0.00 46 1015.7
20260503180544 67 173 0.0 1.0 0.00 0.00 0.00 45 1015.6
20260503180050 68 173 0.0 1.0 0.00 0.00 0.00 45 1015.6
20260503175543 68 173 0.0 0.0 0.00 0.00 0.00 44 1015.6
20260503175043 69 173 0.0 2.0 0.00 0.00 0.00 44 1015.7
20260503174548 69 173 0.0 2.0 0.00 0.00 0.00 43 1015.7
20260503174043 69 173 0.0 2.0 0.00 0.00 0.00 43 1015.7
20260503173543 70 181 0.0 4.0 0.00 0.00 0.00 42 1015.6
20260503173043 71 204 0.0 4.0 0.00 0.00 0.00 41 1015.6
20260503172542 71 219 0.0 4.0 0.00 0.00 0.00 40 1015.6
20260503172042 72 194 1.0 4.0 0.00 0.00 0.00 40 1015.6
20260503171542 72 148 0.0 3.0 0.00 0.00 0.00 40 1015.6
20260503171042 72 196 0.0 2.0 0.00 0.00 0.00 41 1015.6
20260503170541 72 196 0.0 5.0 0.00 0.00 0.00 39 1015.6
20260503150536 76 214 3.0 8.0 0.00 0.00 0.00 35 1015.8
20260503131025 76 185 3.0 10.0 0.00 0.00 0.00 34 1016.6
20260503130527 76 230 4.0 10.0 0.00 0.00 0.00 37 1016.6
20260503110519 74 248 1.0 5.0 0.00 0.00 0.00 43 1017.5
20260503081546 68 138 0.0 3.0 0.00 0.00 0.00 51 1018.7
20260503081049 68 64 0.0 4.0 0.00 0.00 0.00 50 1018.7
20260503080548 68 171 0.0 4.0 0.00 0.00 0.00 51 1018.7
20260503072535 66 75 0.0 3.0 0.00 0.00 0.00 53 1018.7
20260503072034 65 68 1.0 3.0 0.00 0.00 0.00 56 1018.8
20260503071532 65 68 0.0 4.0 0.00 0.00 0.00 59 1018.8
20260503071030 64 67 1.0 4.0 0.00 0.00 0.00 57 1018.8
20260503070532 64 63 1.0 3.0 0.00 0.00 0.00 56 1018.7
20260503055009 58 57 1.0 3.0 0.00 0.00 0.00 70 1018.6
20260503054513 58 61 1.0 2.0 0.00 0.00 0.00 72 1018.6
20260503054006 57 61 0.0 2.0 0.00 0.00 0.00 73 1018.6
20260503053505 56 61 0.0 2.0 0.00 0.00 0.00 75 1018.6
20260503053013 55 61 0.0 2.0 0.00 0.00 0.00 75 1018.6
20260503052504 54 61 0.0 2.0 0.00 0.00 0.00 77 1018.5
20260503052003 53 61 0.0 2.0 0.00 0.00 0.00 78 1018.5
20260503051501 53 61 0.0 2.0 0.00 0.00 0.00 78 1018.5
20260503051100 52 61 0.0 2.0 0.00 0.00 0.00 79 1018.5
20260503050600 52 61 0.0 1.0 0.00 0.00 0.00 80 1018.6
20260503050058 51 61 0.0 2.0 0.00 0.00 0.00 80 1018.6
20260503045556 50 61 0.0 2.0 0.00 0.00 0.00 80 1018.5
20260503045054 50 61 0.0 2.0 0.00 0.00 0.00 80 1018.5
20260503044611 50 61 0.0 2.0 0.00 0.00 0.00 80 1018.6
20260503044053 49 61 0.0 1.0 0.00 0.00 0.00 80 1018.5
20260503043552 49 61 0.0 1.0 0.00 0.00 0.00 80 1018.5
20260503043056 49 61 0.0 2.0 0.00 0.00 0.00 80 1018.5
20260503042550 49 61 0.0 0.0 0.00 0.00 0.00 81 1018.5
20260503042050 48 61 0.0 0.0 0.00 0.00 0.00 81 1018.5
20260503041608 48 61 0.0 0.0 0.00 0.00 0.00 81 1018.5
20260503041048 48 61 0.0 0.0 0.00 0.00 0.00 81 1018.5
20260503040549 48 61 0.0 0.0 0.00 0.00 0.00 81 1018.5
20260503040052 48 61 0.0 2.0 0.00 0.00 0.00 81 1018.5
20260503035547 48 61 0.0 2.0 0.00 0.00 0.00 81 1018.5
20260503035047 48 61 0.0 2.0 0.00 0.00 0.00 81 1018.5
20260503034547 48 61 0.0 2.0 0.00 0.00 0.00 81 1018.5
20260503034046 48 61 0.0 2.0 0.00 0.00 0.00 81 1018.5
20260503033546 48 61 0.0 2.0 0.00 0.00 0.00 81 1018.5
20260503033059 48 61 0.0 2.0 0.00 0.00 0.00 81 1018.5
20260503032549 48 61 0.0 2.0 0.00 0.00 0.00 81 1018.6
20260503032046 48 61 0.0 2.0 0.00 0.00 0.00 80 1018.6
20260503031545 48 61 0.0 2.0 0.00 0.00 0.00 80 1018.6
20260503031044 49 61 0.0 2.0 0.00 0.00 0.00 80 1018.6
20260503030543 49 61 0.0 2.0 0.00 0.00 0.00 80 1018.7
20260503030043 49 61 0.0 2.0 0.00 0.00 0.00 80 1018.7
20260503025542 49 61 0.0 2.0 0.00 0.00 0.00 80 1018.8
20260503025042 49 61 0.0 2.0 0.00 0.00 0.00 80 1018.7
20260503024542 49 61 0.0 2.0 0.00 0.00 0.00 80 1018.7
20260503024045 49 61 0.0 2.0 0.00 0.00 0.00 80 1018.8
20260503023542 49 61 0.0 2.0 0.00 0.00 0.00 80 1018.7
20260503023044 49 61 0.0 2.0 0.00 0.00 0.00 81 1018.7
20260503022540 49 61 0.0 2.0 0.00 0.00 0.00 81 1018.7
20260503022039 49 61 0.0 2.0 0.00 0.00 0.00 80 1018.8
20260503021542 49 61 0.0 1.0 0.00 0.00 0.00 80 1018.8
20260503021038 49 61 0.0 2.0 0.00 0.00 0.00 80 1018.8
20260503020537 49 61 0.0 2.0 0.00 0.00 0.00 79 1018.8
20260503020037 49 61 0.0 2.0 0.00 0.00 0.00 79 1018.8
20260503015537 49 61 0.0 2.0 0.00 0.00 0.00 79 1018.8
20260503015035 49 61 0.0 2.0 0.00 0.00 0.00 79 1018.9
20260503014539 50 61 0.0 2.0 0.00 0.00 0.00 79 1018.9
20260503014035 50 61 0.0 2.0 0.00 0.00 0.00 79 1018.9
20260503013534 50 61 0.0 2.0 0.00 0.00 0.00 78 1018.9
20260503013034 50 61 0.0 0.0 0.00 0.00 0.00 78 1018.9
20260503012533 50 61 0.0 0.0 0.00 0.00 0.00 77 1019.0
20260503012033 50 61 0.0 0.0 0.00 0.00 0.00 77 1018.9
20260503011535 51 61 0.0 1.0 0.00 0.00 0.00 77 1019.0
20260503011032 51 61 0.0 2.0 0.00 0.00 0.00 76 1019.0
20260503010531 51 61 0.0 2.0 0.00 0.00 0.00 76 1019.0
20260503010033 52 61 0.0 2.0 0.00 0.00 0.00 76 1019.1
20260503005531 52 61 0.0 0.0 0.00 0.00 0.00 76 1019.1
20260503005030 52 61 0.0 2.0 0.00 0.00 0.00 76 1019.1
20260503004530 52 61 0.0 2.0 0.00 0.00 0.00 77 1019.1
20260503004032 51 61 0.0 0.0 0.00 0.00 0.00 77 1019.2
20260503003529 51 61 0.0 2.0 0.00 0.00 0.00 77 1019.2
20260503003030 51 61 0.0 2.0 0.00 0.00 0.00 76 1019.2
20260503002532 52 61 0.0 1.0 0.00 0.00 0.00 76 1019.3
20260503002029 52 61 0.0 0.0 0.00 0.00 0.00 76 1019.4
20260503001528 52 61 0.0 0.0 0.00 0.00 0.00 77 1019.4
20260503001027 52 61 0.0 1.0 0.00 0.00 0.00 77 1019.5
20260503000525 52 61 0.0 2.0 0.00 0.00 0.00 77 1019.5
20260503000026 51 61 0.0 2.0 0.00 0.00 0.00 77 1019.5
20260502235525 51 61 0.0 2.0 0.00 0.00 0.00 78 1019.5
20260502235024 51 61 0.0 2.0 0.00 0.00 0.00 79 1019.6
20260502234534 51 61 0.0 2.0 0.00 0.00 0.00 79 1019.7
20260502234024 51 61 0.0 0.0 0.00 0.00 0.00 79 1019.8
20260502233525 50 61 0.0 0.0 0.00 0.00 0.00 79 1019.8
20260502233024 50 61 0.0 2.0 0.00 0.00 0.00 79 1019.8
20260502232523 50 61 0.0 2.0 0.00 0.00 0.00 79 1019.8
20260502232022 50 61 0.0 2.0 0.00 0.00 0.00 79 1019.8
20260502231522 51 61 0.0 2.0 0.00 0.00 0.00 79 1019.9
20260502231025 51 61 0.0 2.0 0.00 0.00 0.00 79 1020.0
20260502230521 50 61 0.0 2.0 0.00 0.00 0.00 78 1019.9
20260502230021 51 61 0.0 2.0 0.00 0.00 0.00 78 1020.0
20260502225523 51 61 0.0 2.0 0.00 0.00 0.00 78 1019.9
20260502225019 51 61 0.0 2.0 0.00 0.00 0.00 77 1020.0
20260502224520 51 61 0.0 2.0 0.00 0.00 0.00 77 1020.0
20260502224017 52 61 0.0 2.0 0.00 0.00 0.00 75 1020.0
20260502223516 53 61 0.0 0.0 0.00 0.00 0.00 75 1020.0
20260502223015 53 61 0.0 0.0 0.00 0.00 0.00 74 1020.0
20260502222515 53 61 0.0 0.0 0.00 0.00 0.00 74 1020.0
20260502222019 53 61 0.0 0.0 0.00 0.00 0.00 74 1019.9
20260502221512 54 61 0.0 2.0 0.00 0.00 0.00 73 1019.9
20260502221010 55 61 0.0 2.0 0.00 0.00 0.00 70 1019.9
20260502220508 56 61 0.0 2.0 0.00 0.00 0.00 70 1019.9
20260502220018 56 61 0.0 2.0 0.00 0.00 0.00 69 1019.9
20260502215510 56 61 1.0 3.0 0.00 0.00 0.00 67 1020.0
20260502215006 57 63 0.0 3.0 0.00 0.00 0.00 67 1019.9
20260502214507 57 63 0.0 3.0 0.00 0.00 0.00 67 1019.9
20260502214009 57 63 1.0 3.0 0.00 0.00 0.00 67 1019.9
20260502213506 57 63 1.0 4.0 0.00 0.00 0.00 66 1019.9
20260502213019 57 63 1.0 4.0 0.00 0.00 0.00 66 1019.9
20260502212506 58 57 1.0 3.0 0.00 0.00 0.00 66 1019.9
20260502212007 58 70 1.0 3.0 0.00 0.00 0.00 65 1019.9
20260502211506 58 67 0.0 3.0 0.00 0.00 0.00 65 1019.8
20260502211005 58 67 1.0 3.0 0.00 0.00 0.00 65 1019.9
20260502210505 58 65 0.0 2.0 0.00 0.00 0.00 64 1019.9
20260502210005 58 65 0.0 4.0 0.00 0.00 0.00 65 1019.9
20260502205505 58 73 1.0 4.0 0.00 0.00 0.00 65 1019.9
20260502205005 57 56 1.0 3.0 0.00 0.00 0.00 67 1019.9
20260502204505 56 78 0.0 2.0 0.00 0.00 0.00 68 1019.9
20260502204005 55 160 0.0 2.0 0.00 0.00 0.00 69 1020.0
20260502203507 56 187 0.0 2.0 0.00 0.00 0.00 69 1019.9